EW2804 Weather Reports


time (UTC)temp
C
wind
direction
speed
KPH
gust
KPH
rain 1hr
cm
rain 24hr
cm
rain mn
cm
humidity
%
barometer
mb
20260902204744 37 153 1.6 12.9 0.00 0.00 0.00 37 1010.0
20260902203708 37 350 3.2 12.9 0.00 0.00 0.00 38 1010.2
20260902201459 37 44 3.2 11.3 0.00 0.00 0.00 38 1010.5
20260902200440 36 38 3.2 12.9 0.00 0.00 0.00 38 1010.7
20260902195417 36 28 3.2 12.9 0.00 0.00 0.00 40 1010.8
20260902194421 36 355 3.2 11.3 0.00 0.00 0.00 40 1011.0
20260902192323 36 57 3.2 9.7 0.00 0.00 0.00 41 1011.4
20260902191308 36 32 1.6 12.9 0.00 0.00 0.00 41 1011.6
20260902190244 36 84 3.2 16.1 0.00 0.00 0.00 41 1011.7
20260902185227 36 22 1.6 9.7 0.00 0.00 0.00 42 1011.8
20260902183102 35 32 1.6 11.3 0.00 0.00 0.00 43 1012.1
20260902182106 35 144 3.2 9.7 0.00 0.00 0.00 44 1012.3
20260902181058 35 65 1.6 9.7 0.00 0.00 0.00 45 1012.6
20260902180052 35 136 3.2 8.0 0.00 0.00 0.00 44 1012.7
20260902175112 35 103 1.6 8.0 0.00 0.00 0.00 45 1012.9
20260902174113 35 36 1.6 11.3 0.00 0.00 0.00 46 1013.1
20260902173103 34 120 3.2 11.3 0.00 0.00 0.00 45 1013.3
20260902172124 34 130 3.2 11.3 0.00 0.00 0.00 45 1013.5
20260902170006 33 131 3.2 12.9 0.00 0.00 0.00 48 1013.7
20260902165024 33 182 3.2 12.9 0.00 0.00 0.00 49 1013.8
20260902162819 33 148 3.2 8.0 0.00 0.00 0.00 49 1013.9
20260902160610 32 67 1.6 9.7 0.00 0.00 0.00 51 1014.1
20260902154521 32 54 0.0 9.7 0.00 0.00 0.00 51 1014.1
20260902153536 32 121 1.6 9.7 0.00 0.00 0.00 52 1014.1
20260902151433 31 216 1.6 8.0 0.00 0.00 0.00 56 1014.0
20260902145251 31 135 1.6 8.0 0.00 0.00 0.00 58 1013.9
20260902144237 30 246 0.0 4.8 0.00 0.00 0.00 59 1014.0
20260902143223 30 221 0.0 4.8 0.00 0.00 0.00 60 1014.0
20260902142212 30 177 1.6 9.7 0.00 0.00 0.00 61 1014.1
20260902141206 30 109 1.6 9.7 0.00 0.00 0.00 62 1014.0
20260902140144 29 246 1.6 4.8 0.00 0.00 0.00 63 1014.0
20260902135149 28 187 1.6 4.8 0.00 0.00 0.00 65 1014.0
20260902134129 27 130 0.0 3.2 0.00 0.00 0.00 69 1013.9
20260902133140 26 51 0.0 0.0 0.00 0.00 0.00 73 1013.8
20260902132141 26 51 0.0 0.0 0.00 0.00 0.00 77 1013.8
20260902131113 25 51 0.0 0.0 0.00 0.00 0.00 80 1013.8
20260902130113 24 51 0.0 0.0 0.00 0.00 0.00 80 1013.6
20260902125112 24 51 0.0 0.0 0.00 0.00 0.00 80 1013.6
20260902124127 24 162 0.0 0.0 0.00 0.00 0.00 79 1013.5
20260902122008 24 140 0.0 0.0 0.00 0.00 0.00 78 1013.2
20260902121017 24 140 0.0 0.0 0.00 0.00 0.00 79 1013.2
20260902114905 24 140 0.0 0.0 0.00 0.00 0.00 78 1013.1
20260902113838 24 140 0.0 0.0 0.00 0.00 0.00 78 1013.2
20260902112818 24 140 0.0 0.0 0.00 0.00 0.00 77 1013.1
20260902111755 24 140 0.0 0.0 0.00 0.00 0.00 76 1013.2
20260902110811 24 140 0.0 0.0 0.00 0.00 0.00 75 1013.2
20260902105819 25 140 0.0 0.0 0.00 0.00 0.00 75 1013.2
20260902104757 25 140 0.0 0.0 0.00 0.00 0.00 74 1013.1
20260902103751 25 140 0.0 0.0 0.00 0.00 0.00 73 1013.0
20260902102805 25 140 0.0 0.0 0.00 0.00 0.00 73 1012.9
20260902101801 25 140 0.0 0.0 0.00 0.00 0.00 71 1013.1
20260902100812 26 140 0.0 0.0 0.00 0.00 0.00 70 1013.1
20260902095740 26 140 0.0 0.0 0.00 0.00 0.00 70 1012.9
20260902094729 26 140 0.0 0.0 0.00 0.00 0.00 69 1013.0
20260902093711 27 140 0.0 0.0 0.00 0.00 0.00 67 1013.0
20260902091536 27 140 0.0 0.0 0.00 0.00 0.00 64 1013.0
20260902090510 28 140 0.0 0.0 0.00 0.00 0.00 63 1013.0
20260902085512 28 140 0.0 3.2 0.00 0.00 0.00 62 1013.0
20260902083354 28 166 0.0 0.0 0.00 0.00 0.00 61 1013.1
20260902082321 28 166 0.0 0.0 0.00 0.00 0.00 61 1013.2
20260902081254 28 166 0.0 0.0 0.00 0.00 0.00 60 1013.1
20260902080245 29 166 0.0 4.8 0.00 0.00 0.00 60 1013.0
20260902075208 29 107 0.0 4.8 0.00 0.00 0.00 59 1013.0
20260902074229 29 130 0.0 11.3 0.00 0.00 0.00 59 1013.1
20260902073244 30 133 0.0 8.0 0.00 0.00 0.00 59 1013.1
20260902072253 30 123 0.0 4.8 0.00 0.00 0.00 58 1013.1
20260902071252 30 162 0.0 4.8 0.00 0.00 0.00 58 1013.1
20260902070250 30 137 0.0 11.3 0.00 0.00 0.00 58 1013.2
20260902065306 30 177 0.0 8.0 0.00 0.00 0.00 58 1013.2
20260902064243 30 246 1.6 6.4 0.00 0.00 0.00 57 1013.1
20260902062045 30 144 0.0 1.6 0.00 0.00 0.00 57 1012.9
20260902061056 30 142 1.6 4.8 0.00 0.00 0.00 56 1012.8
20260902060033 30 148 0.0 6.4 0.00 0.00 0.00 55 1012.7
20260902054956 31 173 1.6 9.7 0.00 0.00 0.00 54 1012.6
20260902053927 31 151 1.6 9.7 0.00 0.00 0.00 53 1012.5
20260902052858 31 157 1.6 12.9 0.00 0.00 0.00 52 1012.5
20260902051838 31 182 3.2 12.9 0.00 0.00 0.00 52 1012.4
20260902045625 29 171 0.0 4.8 0.00 0.00 0.00 59 1012.2
20260902044610 29 171 0.0 0.0 0.00 0.00 0.00 59 1012.1
20260902043558 29 171 0.0 0.0 0.00 0.00 0.00 59 1012.2
20260902042554 29 171 0.0 0.0 0.00 0.00 0.00 58 1012.2
20260902041520 30 171 0.0 0.0 0.00 0.00 0.00 59 1012.2
20260902035358 30 171 0.0 0.0 0.00 0.00 0.00 57 1012.1
20260902034341 30 171 0.0 0.0 0.00 0.00 0.00 57 1012.2
20260902033353 30 171 0.0 0.0 0.00 0.00 0.00 57 1012.2
20260902032355 30 171 0.0 0.0 0.00 0.00 0.00 55 1012.1
20260902031413 31 171 0.0 0.0 0.00 0.00 0.00 54 1012.0
20260902030359 31 171 0.0 0.0 0.00 0.00 0.00 51 1011.8
20260902025403 32 171 0.0 0.0 0.00 0.00 0.00 49 1011.7
20260902024411 32 171 0.0 0.0 0.00 0.00 0.00 48 1011.6
20260902023414 32 171 0.0 0.0 0.00 0.00 0.00 47 1011.4
20260902022431 32 171 0.0 0.0 0.00 0.00 0.00 46 1011.3
20260902021442 32 142 0.0 1.6 0.00 0.00 0.00 46 1011.1
20260902020439 33 142 0.0 0.0 0.00 0.00 0.00 45 1011.0
20260902015403 33 142 0.0 0.0 0.00 0.00 0.00 44 1010.9
20260902014408 33 142 0.0 3.2 0.00 0.00 0.00 43 1010.7
20260902011147 34 142 0.0 0.0 0.00 0.00 0.00 41 1010.5
20260902010157 35 142 1.6 8.0 0.00 0.00 0.00 40 1010.5
20260902005217 35 125 1.6 6.4 0.00 0.00 0.00 40 1010.4
20260902004231 35 185 1.6 6.4 0.00 0.00 0.00 39 1010.5
20260902003233 36 163 1.6 6.4 0.00 0.00 0.00 39 1010.5
20260902002224 36 248 1.6 6.4 0.00 0.00 0.00 37 1010.6
20260902001210 36 206 0.0 6.4 0.00 0.00 0.00 35 1010.6
20260901235006 37 117 1.6 8.0 0.00 0.00 0.00 35 1010.7
20260901234006 37 99 1.6 11.3 0.00 0.00 0.00 34 1010.8
20260901232938 37 42 3.2 11.3 0.00 0.00 0.00 35 1010.8
20260901231936 37 157 3.2 11.3 0.00 0.00 0.00 35 1010.9
20260901230948 37 103 1.6 9.7 0.00 0.00 0.00 34 1010.9
20260901225923 37 125 1.6 14.5 0.00 0.00 0.00 34 1010.9
20260901224913 37 113 3.2 14.5 0.00 0.00 0.00 34 1011.0
20260901222817 38 128 1.6 12.9 0.00 0.00 0.00 33 1011.0
20260901221745 38 36 1.6 9.7 0.00 0.00 0.00 33 1011.0
20260901220714 37 150 1.6 9.7 0.00 0.00 0.00 33 1011.0
20260901215736 37 212 3.2 12.9 0.00 0.00 0.00 33 1011.1
20260901214704 37 74 3.2 14.5 0.00 0.00 0.00 35 1011.3
20260901213634 37 56 1.6 14.5 0.00 0.00 0.00 35 1011.3
20260901212639 37 130 0.0 8.0 0.00 0.00 0.00 35 1011.4
20260901211614 36 194 3.2 6.4 0.00 0.00 0.00 37 1011.5
20260901210540 37 56 1.6 9.7 0.00 0.00 0.00 36 1011.7